Time,TemperatureF,DewpointF,PressureIn,WindDirection,WindDirectionDegrees,WindSpeedMPH,WindSpeedGustMPH,Humidity,HourlyPrecipIn,Conditions,Clouds,dailyrainin,SoftwareType,DateUTC
2013-09-22 00:01:00,57.4,53.5,29.68,SW,227,1.8,5.4,87,0.00,,,1.27,WUHU21623XXSP,2013-09-22 04:01:00,
2013-09-22 00:02:00,57.4,53.5,29.68,SSE,157,0.0,5.4,87,0.00,,,0.00,WUHU21623XXSP,2013-09-22 04:02:00,
2013-09-22 00:07:00,57.6,53.7,29.68,NE,36,1.9,6.0,87,0.02,,,0.02,WUHU21623XXSP,2013-09-22 04:07:00,
2013-09-22 00:12:00,57.4,53.5,29.69,NE,45,0.6,6.0,87,0.02,,,0.02,WUHU21623XXSP,2013-09-22 04:12:00,
2013-09-22 00:17:00,57.4,53.5,29.69,NNE,22,2.5,7.2,87,0.02,,,0.02,WUHU21623XXSP,2013-09-22 04:17:00,
2013-09-22 00:22:00,57.0,53.2,29.69,SE,135,0.0,7.2,87,0.02,,,0.02,WUHU21623XXSP,2013-09-22 04:22:00,
2013-09-22 00:27:00,56.8,52.7,29.69,NNE,22,3.4,3.4,86,0.02,,,0.02,WUHU21623XXSP,2013-09-22 04:27:00,
2013-09-22 00:32:00,56.5,52.4,29.69,ENE,67,0.0,4.7,86,0.02,,,0.02,WUHU21623XXSP,2013-09-22 04:32:00,
2013-09-22 00:37:00,56.3,52.2,29.69,NNW,337,0.6,4.7,86,0.02,,,0.02,WUHU21623XXSP,2013-09-22 04:37:00,
2013-09-22 00:42:00,56.1,52.0,29.69,ENE,77,2.9,4.0,86,0.02,,,0.02,WUHU21623XXSP,2013-09-22 04:42:00,
2013-09-22 00:47:00,55.9,51.8,29.70,NE,45,1.0,3.8,86,0.02,,,0.02,WUHU21623XXSP,2013-09-22 04:47:00,
2013-09-22 00:52:00,55.9,51.8,29.70,East,91,2.1,3.4,86,0.04,,,0.04,WUHU21623XXSP,2013-09-22 04:52:00,
2013-09-22 00:57:00,55.8,51.7,29.70,South,179,3.0,5.1,86,0.04,,,0.04,WUHU21623XXSP,2013-09-22 04:57:00,
2013-09-22 01:02:00,55.6,51.5,29.70,SE,135,0.0,5.1,86,0.02,,,0.04,WUHU21623XXSP,2013-09-22 05:02:00,
2013-09-22 01:07:00,55.2,51.1,29.70,East,89,1.6,4.5,86,0.02,,,0.04,WUHU21623XXSP,2013-09-22 05:07:00,
2013-09-22 01:12:00,55.0,50.9,29.70,SE,135,1.2,4.3,86,0.02,,,0.04,WUHU21623XXSP,2013-09-22 05:12:00,
2013-09-22 01:17:00,54.9,50.8,29.71,NNE,18,2.5,4.3,86,0.02,,,0.04,WUHU21623XXSP,2013-09-22 05:17:00,
2013-09-22 01:22:00,54.5,50.7,29.71,NE,41,1.2,5.1,87,0.02,,,0.04,WUHU21623XXSP,2013-09-22 05:22:00,
2013-09-22 01:27:00,54.3,50.2,29.71,NE,56,1.9,5.1,86,0.02,,,0.04,WUHU21623XXSP,2013-09-22 05:27:00,
2013-09-22 01:32:00,54.3,50.2,29.71,ENE,61,2.2,3.6,86,0.02,,,0.04,WUHU21623XXSP,2013-09-22 05:32:00,
2013-09-22 01:37:00,54.1,50.0,29.72,North,0,1.6,4.3,86,0.02,,,0.04,WUHU21623XXSP,2013-09-22 05:37:00,
2013-09-22 01:42:00,53.8,49.7,29.72,North,8,2.8,4.5,86,0.02,,,0.04,WUHU21623XXSP,2013-09-22 05:42:00,
2013-09-22 01:47:00,53.8,49.7,29.72,SSE,157,2.2,4.5,86,0.02,,,0.04,WUHU21623XXSP,2013-09-22 05:47:00,
2013-09-22 01:52:00,53.4,49.3,29.72,SE,133,1.9,7.2,86,0.00,,,0.04,WUHU21623XXSP,2013-09-22 05:52:00,
2013-09-22 01:57:00,53.4,49.3,29.72,South,180,0.8,7.2,86,0.00,,,0.04,WUHU21623XXSP,2013-09-22 05:57:00,
2013-09-22 02:02:00,53.2,49.1,29.72,NE,45,0.0,4.9,86,0.00,,,0.04,WUHU21623XXSP,2013-09-22 06:02:00,
2013-09-22 02:07:00,52.9,48.8,29.72,North,0,0.0,2.7,86,0.00,,,0.04,WUHU21623XXSP,2013-09-22 06:07:00,
2013-09-22 02:12:00,52.9,48.8,29.72,SSW,199,3.0,4.0,86,0.00,,,0.04,WUHU21623XXSP,2013-09-22 06:12:00,
2013-09-22 02:17:00,52.7,48.6,29.72,ESE,112,0.0,4.0,86,0.00,,,0.04,WUHU21623XXSP,2013-09-22 06:17:00,
2013-09-22 02:22:00,52.3,48.2,29.72,NNW,337,2.7,4.7,86,0.00,,,0.04,WUHU21623XXSP,2013-09-22 06:22:00,
2013-09-22 02:27:00,52.2,48.1,29.72,NNE,30,1.3,4.7,86,0.00,,,0.04,WUHU21623XXSP,2013-09-22 06:27:00,
2013-09-22 02:32:00,52.0,47.9,29.71,ENE,67,1.8,3.8,86,0.00,,,0.04,WUHU21623XXSP,2013-09-22 06:32:00,
2013-09-22 02:37:00,51.6,47.5,29.71,SE,135,0.0,3.8,86,0.00,,,0.04,WUHU21623XXSP,2013-09-22 06:37:00,
2013-09-22 02:42:00,51.4,47.3,29.71,NNE,18,1.6,2.9,86,0.00,,,0.04,WUHU21623XXSP,2013-09-22 06:42:00,
2013-09-22 02:47:00,51.1,47.0,29.71,ENE,67,0.0,2.0,86,0.00,,,0.04,WUHU21623XXSP,2013-09-22 06:47:00,
2013-09-22 02:52:00,50.9,46.8,29.72,NE,45,0.0,2.9,86,0.00,,,0.04,WUHU21623XXSP,2013-09-22 06:52:00,
2013-09-22 02:57:00,50.7,46.7,29.72,SE,135,0.9,2.9,86,0.00,,,0.04,WUHU21623XXSP,2013-09-22 06:57:00,
2013-09-22 03:02:00,50.5,46.5,29.72,SE,135,0.0,2.0,86,0.00,,,0.04,WUHU21623XXSP,2013-09-22 07:02:00,
2013-09-22 03:07:00,50.4,46.4,29.72,SE,135,0.0,2.0,86,0.00,,,0.04,WUHU21623XXSP,2013-09-22 07:07:00,
2013-09-22 03:12:00,50.2,46.2,29.72,SSE,157,0.0,4.9,86,0.00,,,0.04,WUHU21623XXSP,2013-09-22 07:12:00,
2013-09-22 03:17:00,50.2,46.2,29.72,SSW,202,0.0,4.9,86,0.00,,,0.04,WUHU21623XXSP,2013-09-22 07:17:00,
2013-09-22 03:22:00,49.8,45.8,29.72,SSE,157,1.6,4.3,86,0.00,,,0.04,WUHU21623XXSP,2013-09-22 07:22:00,
2013-09-22 03:27:00,49.8,45.8,29.72,NE,35,1.9,3.1,86,0.00,,,0.04,WUHU21623XXSP,2013-09-22 07:27:00,
2013-09-22 03:32:00,49.8,45.8,29.72,NE,45,1.1,3.1,86,0.00,,,0.04,WUHU21623XXSP,2013-09-22 07:32:00,
2013-09-22 03:37:00,50.0,46.3,29.72,SW,225,3.8,4.7,87,0.00,,,0.04,WUHU21623XXSP,2013-09-22 07:37:00,
2013-09-22 03:42:00,50.2,46.5,29.72,South,180,8.3,8.3,87,0.00,,,0.04,WUHU21623XXSP,2013-09-22 07:42:00,
2013-09-22 03:47:00,50.2,46.5,29.72,WSW,249,1.9,10.1,87,0.00,,,0.04,WUHU21623XXSP,2013-09-22 07:47:00,
2013-09-22 03:52:00,50.4,46.7,29.72,ENE,67,2.2,10.1,87,0.00,,,0.04,WUHU21623XXSP,2013-09-22 07:52:00,
2013-09-22 03:57:00,50.4,46.7,29.72,SSE,150,2.9,8.3,87,0.00,,,0.04,WUHU21623XXSP,2013-09-22 07:57:00,
2013-09-22 04:02:00,50.5,46.5,29.73,South,180,0.4,8.3,86,0.00,,,0.04,WUHU21623XXSP,2013-09-22 08:02:00,
2013-09-22 04:07:00,50.5,46.5,29.73,SSW,195,1.6,5.8,86,0.00,,,0.04,WUHU21623XXSP,2013-09-22 08:07:00,
2013-09-22 04:12:00,50.5,46.5,29.73,ENE,67,0.7,5.1,86,0.00,,,0.04,WUHU21623XXSP,2013-09-22 08:12:00,
2013-09-22 04:17:00,50.5,46.5,29.73,NE,45,2.4,3.4,86,0.00,,,0.04,WUHU21623XXSP,2013-09-22 08:17:00,
2013-09-22 04:22:00,50.5,46.5,29.73,East,96,1.1,4.7,86,0.00,,,0.04,WUHU21623XXSP,2013-09-22 08:22:00,
2013-09-22 04:27:00,50.5,46.5,29.73,ESE,112,0.9,6.7,86,0.00,,,0.04,WUHU21623XXSP,2013-09-22 08:27:00,
2013-09-22 04:32:00,50.7,46.7,29.73,SE,126,0.8,6.7,86,0.00,,,0.04,WUHU21623XXSP,2013-09-22 08:32:00,
2013-09-22 04:37:00,50.5,46.5,29.73,ENE,67,2.5,5.1,86,0.00,,,0.04,WUHU21623XXSP,2013-09-22 08:37:00,
2013-09-22 04:42:00,50.5,46.5,29.74,ESE,112,0.9,5.4,86,0.00,,,0.04,WUHU21623XXSP,2013-09-22 08:42:00,
2013-09-22 04:47:00,50.5,46.2,29.73,ESE,108,2.7,5.4,85,0.00,,,0.04,WUHU21623XXSP,2013-09-22 08:47:00,
2013-09-22 04:52:00,50.4,46.1,29.74,WSW,247,0.0,5.4,85,0.00,,,0.04,WUHU21623XXSP,2013-09-22 08:52:00,
2013-09-22 04:57:00,50.2,45.9,29.74,ESE,112,0.0,3.8,85,0.00,,,0.04,WUHU21623XXSP,2013-09-22 08:57:00,
2013-09-22 05:02:00,50.2,45.9,29.74,NE,44,1.8,2.9,85,0.00,,,0.04,WUHU21623XXSP,2013-09-22 09:02:00,
2013-09-22 05:07:00,50.2,45.9,29.74,SE,135,1.3,4.0,85,0.00,,,0.04,WUHU21623XXSP,2013-09-22 09:07:00,
2013-09-22 05:12:00,50.2,45.9,29.74,NE,45,1.7,4.9,85,0.00,,,0.04,WUHU21623XXSP,2013-09-22 09:12:00,
2013-09-22 05:17:00,50.2,45.9,29.73,NE,45,1.3,5.1,85,0.00,,,0.04,WUHU21623XXSP,2013-09-22 09:17:00,
2013-09-22 05:22:00,50.2,45.9,29.74,WSW,250,4.5,8.3,85,0.00,,,0.04,WUHU21623XXSP,2013-09-22 09:22:00,
2013-09-22 05:27:00,50.2,45.9,29.74,North,0,0.0,8.3,85,0.00,,,0.04,WUHU21623XXSP,2013-09-22 09:27:00,
2013-09-22 05:32:00,50.2,45.9,29.74,South,180,5.4,8.3,85,0.00,,,0.04,WUHU21623XXSP,2013-09-22 09:32:00,
2013-09-22 05:37:00,50.2,45.9,29.74,ENE,78,1.8,8.3,85,0.00,,,0.04,WUHU21623XXSP,2013-09-22 09:37:00,
2013-09-22 05:42:00,50.4,46.1,29.74,ESE,112,2.8,6.3,85,0.00,,,0.04,WUHU21623XXSP,2013-09-22 09:42:00,
2013-09-22 05:47:00,50.4,46.1,29.74,South,185,3.8,6.3,85,0.00,,,0.04,WUHU21623XXSP,2013-09-22 09:47:00,
2013-09-22 05:52:00,50.5,46.2,29.74,NNE,33,2.5,5.8,85,0.00,,,0.04,WUHU21623XXSP,2013-09-22 09:52:00,
2013-09-22 05:57:00,50.7,46.3,29.75,NNW,337,1.6,5.8,85,0.00,,,0.04,WUHU21623XXSP,2013-09-22 09:57:00,
2013-09-22 06:02:00,50.7,46.3,29.75,SW,225,0.0,5.6,85,0.00,,,0.04,WUHU21623XXSP,2013-09-22 10:02:00,
2013-09-22 06:07:00,50.7,46.3,29.75,NE,49,2.7,5.6,85,0.00,,,0.04,WUHU21623XXSP,2013-09-22 10:07:00,
2013-09-22 06:12:00,50.7,46.3,29.75,NE,45,2.7,4.9,85,0.00,,,0.04,WUHU21623XXSP,2013-09-22 10:12:00,
2013-09-22 06:17:00,50.7,46.3,29.75,East,92,1.5,6.5,85,0.00,,,0.04,WUHU21623XXSP,2013-09-22 10:17:00,
2013-09-22 06:22:00,50.7,46.3,29.75,NE,54,2.3,6.5,85,0.00,,,0.04,WUHU21623XXSP,2013-09-22 10:22:00,
2013-09-22 06:27:00,50.7,46.3,29.75,NE,45,1.6,4.0,85,0.00,,,0.04,WUHU21623XXSP,2013-09-22 10:27:00,
2013-09-22 06:32:00,50.7,46.3,29.76,SSE,157,4.0,4.0,85,0.00,,,0.04,WUHU21623XXSP,2013-09-22 10:32:00,
2013-09-22 06:37:00,50.5,46.2,29.76,East,90,0.7,4.0,85,0.00,,,0.04,WUHU21623XXSP,2013-09-22 10:37:00,
2013-09-22 06:42:00,50.5,46.2,29.76,NNE,22,0.0,4.3,85,0.00,,,0.04,WUHU21623XXSP,2013-09-22 10:42:00,
2013-09-22 06:47:00,50.7,46.3,29.76,SE,124,1.3,4.3,85,0.00,,,0.04,WUHU21623XXSP,2013-09-22 10:47:00,
2013-09-22 06:52:00,50.7,46.3,29.76,ENE,67,2.2,3.6,85,0.00,,,0.04,WUHU21623XXSP,2013-09-22 10:52:00,
2013-09-22 06:57:00,50.7,46.3,29.77,ESE,112,0.0,5.1,85,0.00,,,0.04,WUHU21623XXSP,2013-09-22 10:57:00,
2013-09-22 07:02:00,50.7,46.3,29.77,ESE,120,1.8,5.1,85,0.00,,,0.04,WUHU21623XXSP,2013-09-22 11:02:00,
2013-09-22 07:07:00,50.7,46.3,29.77,East,82,2.8,6.0,85,0.00,,,0.04,WUHU21623XXSP,2013-09-22 11:07:00,
2013-09-22 07:12:00,50.7,46.0,29.77,NE,45,1.6,6.0,84,0.00,,,0.04,WUHU21623XXSP,2013-09-22 11:12:00,
2013-09-22 07:17:00,50.7,46.3,29.77,SE,141,3.7,4.7,85,0.00,,,0.04,WUHU21623XXSP,2013-09-22 11:17:00,
2013-09-22 07:22:00,50.7,46.3,29.78,SE,135,2.9,4.7,85,0.00,,,0.04,WUHU21623XXSP,2013-09-22 11:22:00,
2013-09-22 07:27:00,50.7,46.3,29.78,ENE,74,2.8,5.6,85,0.00,,,0.04,WUHU21623XXSP,2013-09-22 11:27:00,
2013-09-22 07:32:00,50.7,46.3,29.78,East,100,2.4,5.6,85,0.00,,,0.04,WUHU21623XXSP,2013-09-22 11:32:00,
2013-09-22 07:37:00,50.7,46.3,29.78,East,90,1.3,3.1,85,0.00,,,0.04,WUHU21623XXSP,2013-09-22 11:37:00,
2013-09-22 07:42:00,50.5,46.2,29.78,NE,51,2.7,5.8,85,0.00,,,0.04,WUHU21623XXSP,2013-09-22 11:42:00,
2013-09-22 07:47:00,50.7,46.3,29.78,ESE,107,2.6,5.8,85,0.00,,,0.04,WUHU21623XXSP,2013-09-22 11:47:00,
2013-09-22 07:52:00,50.7,46.3,29.78,ENE,67,1.8,4.7,85,0.00,,,0.04,WUHU21623XXSP,2013-09-22 11:52:00,
2013-09-22 07:57:00,50.7,46.3,29.78,ESE,112,1.8,4.3,85,0.00,,,0.04,WUHU21623XXSP,2013-09-22 11:57:00,
2013-09-22 08:02:00,50.7,46.3,29.79,North,0,1.8,4.3,85,0.00,,,0.04,WUHU21623XXSP,2013-09-22 12:02:00,
2013-09-22 08:07:00,50.7,46.3,29.79,ENE,67,0.0,2.9,85,0.00,,,0.04,WUHU21623XXSP,2013-09-22 12:07:00,
2013-09-22 08:12:00,50.9,46.5,29.79,NNE,22,0.0,2.9,85,0.00,,,0.04,WUHU21623XXSP,2013-09-22 12:12:00,
2013-09-22 08:17:00,51.1,46.7,29.79,East,86,1.2,2.9,85,0.00,,,0.04,WUHU21623XXSP,2013-09-22 12:17:00,
2013-09-22 08:22:00,51.3,46.9,29.79,NNW,337,0.0,2.0,85,0.00,,,0.04,WUHU21623XXSP,2013-09-22 12:22:00,
2013-09-22 08:27:00,51.4,47.0,29.79,SE,135,0.0,0.2,85,0.00,,,0.04,WUHU21623XXSP,2013-09-22 12:27:00,
2013-09-22 08:32:00,51.6,47.2,29.79,SSW,196,4.8,7.2,85,0.00,,,0.04,WUHU21623XXSP,2013-09-22 12:32:00,
2013-09-22 08:37:00,51.8,47.4,29.80,NE,45,0.0,7.2,85,0.00,,,0.04,WUHU21623XXSP,2013-09-22 12:37:00,
2013-09-22 08:42:00,52.2,47.8,29.80,SE,135,0.0,2.0,85,0.00,,,0.04,WUHU21623XXSP,2013-09-22 12:42:00,
2013-09-22 08:47:00,52.2,47.8,29.80,NE,45,0.0,4.0,85,0.00,,,0.04,WUHU21623XXSP,2013-09-22 12:47:00,
2013-09-22 08:52:00,52.3,47.6,29.80,SE,135,0.0,4.0,84,0.00,,,0.04,WUHU21623XXSP,2013-09-22 12:52:00,
2013-09-22 08:57:00,52.3,47.6,29.80,NE,45,0.0,3.4,84,0.00,,,0.04,WUHU21623XXSP,2013-09-22 12:57:00,
2013-09-22 09:02:00,52.5,47.8,29.80,SE,135,0.7,3.4,84,0.00,,,0.04,WUHU21623XXSP,2013-09-22 13:02:00,
2013-09-22 09:07:00,52.5,47.8,29.80,NNW,337,0.0,0.7,84,0.00,,,0.04,WUHU21623XXSP,2013-09-22 13:07:00,
2013-09-22 09:12:00,52.7,47.7,29.81,NE,45,3.3,4.0,83,0.00,,,0.04,WUHU21623XXSP,2013-09-22 13:12:00,
2013-09-22 09:17:00,52.9,48.2,29.81,SE,135,1.8,4.0,84,0.00,,,0.04,WUHU21623XXSP,2013-09-22 13:17:00,
2013-09-22 09:22:00,53.2,48.5,29.81,ENE,67,1.6,1.8,84,0.00,,,0.04,WUHU21623XXSP,2013-09-22 13:22:00,
2013-09-22 09:27:00,53.2,48.2,29.81,ENE,67,3.4,3.4,83,0.00,,,0.04,WUHU21623XXSP,2013-09-22 13:27:00,
2013-09-22 09:32:00,53.4,48.4,29.81,SE,135,1.3,3.4,83,0.00,,,0.04,WUHU21623XXSP,2013-09-22 13:32:00,
2013-09-22 09:37:00,53.8,48.8,29.81,SW,219,3.5,8.5,83,0.00,,,0.04,WUHU21623XXSP,2013-09-22 13:37:00,
2013-09-22 09:42:00,53.8,48.5,29.81,ESE,116,2.2,8.5,82,0.00,,,0.04,WUHU21623XXSP,2013-09-22 13:42:00,
2013-09-22 09:47:00,53.8,48.5,29.81,NNW,337,1.3,2.7,82,0.00,,,0.04,WUHU21623XXSP,2013-09-22 13:47:00,
2013-09-22 09:52:00,54.0,48.7,29.82,North,0,0.0,4.5,82,0.00,,,0.04,WUHU21623XXSP,2013-09-22 13:52:00,
2013-09-22 09:57:00,54.7,49.3,29.82,SE,126,1.6,4.5,82,0.00,,,0.04,WUHU21623XXSP,2013-09-22 13:57:00,
2013-09-22 10:02:00,55.0,49.3,29.82,NE,45,1.3,7.4,81,0.00,,,0.04,WUHU21623XXSP,2013-09-22 14:02:00,
2013-09-22 10:07:00,55.0,49.0,29.82,SE,130,2.3,7.4,80,0.00,,,0.04,WUHU21623XXSP,2013-09-22 14:07:00,
2013-09-22 10:12:00,54.7,48.7,29.82,NNE,31,2.3,6.5,80,0.00,,,0.04,WUHU21623XXSP,2013-09-22 14:12:00,
2013-09-22 10:17:00,54.9,48.9,29.82,NNE,22,1.8,6.5,80,0.00,,,0.04,WUHU21623XXSP,2013-09-22 14:17:00,
2013-09-22 10:22:00,54.5,48.2,29.82,NNE,22,3.2,5.1,79,0.00,,,0.04,WUHU21623XXSP,2013-09-22 14:22:00,
2013-09-22 10:27:00,54.3,48.0,29.82,North,0,1.8,3.8,79,0.00,,,0.04,WUHU21623XXSP,2013-09-22 14:27:00,
2013-09-22 10:32:00,53.8,47.8,29.82,NE,45,0.0,3.8,80,0.00,,,0.04,WUHU21623XXSP,2013-09-22 14:32:00,
2013-09-22 10:37:00,53.2,47.2,29.83,North,0,1.1,2.5,80,0.00,,,0.04,WUHU21623XXSP,2013-09-22 14:37:00,
2013-09-22 10:42:00,53.4,47.7,29.83,NNE,22,1.5,2.5,81,0.00,,,0.04,WUHU21623XXSP,2013-09-22 14:42:00,
2013-09-22 10:47:00,53.8,48.1,29.83,ENE,73,2.0,3.8,81,0.00,,,0.04,WUHU21623XXSP,2013-09-22 14:47:00,
2013-09-22 10:52:00,54.5,48.8,29.83,ESE,112,2.7,3.8,81,0.00,,,0.04,WUHU21623XXSP,2013-09-22 14:52:00,
2013-09-22 10:57:00,55.0,49.3,29.83,NE,45,1.6,4.5,81,0.00,,,0.04,WUHU21623XXSP,2013-09-22 14:57:00,
2013-09-22 11:02:00,55.6,49.6,29.83,NNE,27,2.3,4.9,80,0.00,,,0.04,WUHU21623XXSP,2013-09-22 15:02:00,
2013-09-22 11:07:00,55.6,48.9,29.83,NE,45,2.0,4.9,78,0.00,,,0.04,WUHU21623XXSP,2013-09-22 15:07:00,
2013-09-22 11:12:00,55.2,48.2,29.83,NNE,22,0.0,4.3,77,0.00,,,0.04,WUHU21623XXSP,2013-09-22 15:12:00,
2013-09-22 11:17:00,55.0,48.0,29.83,SSE,157,3.1,3.4,77,0.00,,,0.04,WUHU21623XXSP,2013-09-22 15:17:00,
2013-09-22 11:22:00,55.0,47.7,29.83,North,0,0.0,3.4,76,0.00,,,0.04,WUHU21623XXSP,2013-09-22 15:22:00,
2013-09-22 11:27:00,54.7,47.4,29.83,NNE,22,2.2,3.1,76,0.00,,,0.04,WUHU21623XXSP,2013-09-22 15:27:00,
2013-09-22 11:32:00,54.0,46.7,29.84,NNE,33,2.0,4.7,76,0.00,,,0.04,WUHU21623XXSP,2013-09-22 15:32:00,
2013-09-22 11:37:00,52.9,46.0,29.84,NNE,27,2.0,4.9,77,0.00,,,0.04,WUHU21623XXSP,2013-09-22 15:37:00,
2013-09-22 11:42:00,52.2,45.3,29.84,NE,45,0.4,4.9,77,0.00,,,0.04,WUHU21623XXSP,2013-09-22 15:42:00,
2013-09-22 11:47:00,51.8,45.2,29.84,NE,45,0.0,2.7,78,0.00,,,0.04,WUHU21623XXSP,2013-09-22 15:47:00,
2013-09-22 11:52:00,52.2,45.9,29.85,SE,135,0.0,2.5,79,0.00,,,0.04,WUHU21623XXSP,2013-09-22 15:52:00,
2013-09-22 11:57:00,52.5,46.2,29.84,NNE,22,0.0,2.5,79,0.00,,,0.04,WUHU21623XXSP,2013-09-22 15:57:00,
2013-09-22 12:02:00,53.4,47.1,29.85,NE,45,0.0,2.2,79,0.00,,,0.04,WUHU21623XXSP,2013-09-22 16:02:00,
2013-09-22 12:07:00,54.5,48.2,29.85,NE,45,2.2,2.5,79,0.00,,,0.04,WUHU21623XXSP,2013-09-22 16:07:00,
2013-09-22 12:12:00,55.2,48.2,29.85,NE,40,2.0,8.3,77,0.00,,,0.04,WUHU21623XXSP,2013-09-22 16:12:00,
2013-09-22 12:17:00,55.4,47.7,29.85,North,10,2.5,8.3,75,0.00,,,0.04,WUHU21623XXSP,2013-09-22 16:17:00,
2013-09-22 12:22:00,55.6,47.2,29.85,NNE,22,4.5,4.7,73,0.00,,,0.04,WUHU21623XXSP,2013-09-22 16:22:00,
2013-09-22 12:27:00,55.4,46.3,29.85,North,0,3.1,4.9,71,0.00,,,0.04,WUHU21623XXSP,2013-09-22 16:27:00,
2013-09-22 12:32:00,55.2,46.1,29.85,NE,45,0.9,4.9,71,0.00,,,0.04,WUHU21623XXSP,2013-09-22 16:32:00,
2013-09-22 12:37:00,55.0,45.9,29.85,NE,45,1.1,6.9,71,0.00,,,0.04,WUHU21623XXSP,2013-09-22 16:37:00,
2013-09-22 12:42:00,55.0,45.9,29.85,North,0,1.8,6.9,71,0.00,,,0.04,WUHU21623XXSP,2013-09-22 16:42:00,
2013-09-22 12:47:00,55.2,45.7,29.85,NE,45,1.8,5.4,70,0.00,,,0.04,WUHU21623XXSP,2013-09-22 16:47:00,
2013-09-22 12:52:00,55.6,45.7,29.86,NNW,347,2.2,4.3,69,0.00,,,0.04,WUHU21623XXSP,2013-09-22 16:52:00,
2013-09-22 12:57:00,55.9,46.0,29.85,NE,39,1.4,6.7,69,0.00,,,0.04,WUHU21623XXSP,2013-09-22 16:57:00,
2013-09-22 13:02:00,56.5,46.2,29.86,North,0,1.2,6.7,68,0.00,,,0.04,WUHU21623XXSP,2013-09-22 17:02:00,
2013-09-22 13:07:00,57.6,46.9,29.86,NW,315,3.6,6.5,67,0.00,,,0.04,WUHU21623XXSP,2013-09-22 17:07:00,
2013-09-22 13:12:00,57.9,46.7,29.86,North,2,1.3,3.6,66,0.00,,,0.04,WUHU21623XXSP,2013-09-22 17:12:00,
2013-09-22 13:17:00,57.9,46.3,29.85,SE,135,2.5,7.4,65,0.00,,,0.04,WUHU21623XXSP,2013-09-22 17:17:00,
2013-09-22 13:22:00,57.7,46.2,29.86,NE,45,0.0,7.4,65,0.00,,,0.04,WUHU21623XXSP,2013-09-22 17:22:00,
2013-09-22 13:27:00,57.4,45.9,29.86,NNE,15,2.7,5.1,65,0.00,,,0.04,WUHU21623XXSP,2013-09-22 17:27:00,
2013-09-22 13:32:00,57.0,45.5,29.86,NNW,337,2.0,2.9,65,0.00,,,0.04,WUHU21623XXSP,2013-09-22 17:32:00,
2013-09-22 13:37:00,56.5,45.0,29.86,NE,49,2.8,3.6,65,0.00,,,0.04,WUHU21623XXSP,2013-09-22 17:37:00,
2013-09-22 13:42:00,55.9,44.4,29.86,NNE,31,2.1,3.6,65,0.00,,,0.04,WUHU21623XXSP,2013-09-22 17:42:00,
2013-09-22 13:48:00,55.9,44.8,29.86,ESE,112,0.0,3.4,66,0.00,,,0.04,WUHU21623XXSP,2013-09-22 17:48:00,
2013-09-22 13:52:00,55.8,44.7,29.86,NE,43,2.8,4.7,66,0.00,,,0.04,WUHU21623XXSP,2013-09-22 17:52:00,
2013-09-22 13:57:00,55.6,44.9,29.86,ENE,72,3.5,6.3,67,0.00,,,0.04,WUHU21623XXSP,2013-09-22 17:57:00,
2013-09-22 14:02:00,55.2,44.6,29.86,NNE,22,2.7,6.7,67,0.00,,,0.04,WUHU21623XXSP,2013-09-22 18:02:00,
2013-09-22 14:07:00,55.9,45.2,29.86,NNE,16,2.4,6.7,67,0.00,,,0.04,WUHU21623XXSP,2013-09-22 18:07:00,
2013-09-22 14:12:00,56.8,45.7,29.86,NW,306,1.3,3.1,66,0.00,,,0.04,WUHU21623XXSP,2013-09-22 18:12:00,
2013-09-22 14:17:00,56.8,45.3,29.86,North,7,2.6,6.0,65,0.00,,,0.04,WUHU21623XXSP,2013-09-22 18:17:00,
2013-09-22 14:22:00,55.9,44.0,29.86,NE,45,2.5,6.0,64,0.00,,,0.04,WUHU21623XXSP,2013-09-22 18:22:00,
2013-09-22 14:27:00,55.2,43.4,29.86,NE,45,1.4,4.7,64,0.00,,,0.04,WUHU21623XXSP,2013-09-22 18:27:00,
2013-09-22 14:32:00,54.9,43.5,29.86,NE,35,1.7,4.7,65,0.00,,,0.04,WUHU21623XXSP,2013-09-22 18:32:00,
2013-09-22 14:37:00,54.5,43.5,29.86,NE,51,2.8,6.3,66,0.00,,,0.04,WUHU21623XXSP,2013-09-22 18:37:00,
2013-09-22 14:42:00,54.3,42.9,29.86,NNE,18,2.7,6.3,65,0.00,,,0.04,WUHU21623XXSP,2013-09-22 18:42:00,
2013-09-22 14:47:00,54.5,43.5,29.86,NNE,22,0.0,4.9,66,0.00,,,0.04,WUHU21623XXSP,2013-09-22 18:47:00,
2013-09-22 14:53:00,55.0,44.0,29.86,NNE,22,1.4,3.6,66,0.00,,,0.04,WUHU21623XXSP,2013-09-22 18:53:00,
2013-09-22 14:58:00,55.0,43.6,29.87,NE,38,2.4,3.6,65,0.00,,,0.04,WUHU21623XXSP,2013-09-22 18:58:00,
2013-09-22 15:03:00,54.9,43.9,29.87,NNE,22,2.2,4.0,66,0.00,,,0.04,WUHU21623XXSP,2013-09-22 19:03:00,
2013-09-22 15:08:00,54.7,43.7,29.87,NNE,22,1.6,4.0,66,0.00,,,0.04,WUHU21623XXSP,2013-09-22 19:08:00,
2013-09-22 15:13:00,54.7,44.1,29.87,NNW,339,1.3,3.6,67,0.00,,,0.04,WUHU21623XXSP,2013-09-22 19:13:00,
2013-09-22 15:18:00,55.0,44.4,29.86,NE,48,1.2,2.7,67,0.00,,,0.04,WUHU21623XXSP,2013-09-22 19:18:00,
2013-09-22 15:23:00,55.2,44.2,29.87,NE,38,1.1,3.4,66,0.00,,,0.04,WUHU21623XXSP,2013-09-22 19:23:00,
2013-09-22 15:28:00,55.2,43.8,29.87,NNE,26,2.2,4.9,65,0.00,,,0.04,WUHU21623XXSP,2013-09-22 19:28:00,
2013-09-22 15:33:00,54.7,43.3,29.87,NE,40,2.6,4.9,65,0.00,,,0.04,WUHU21623XXSP,2013-09-22 19:33:00,
2013-09-22 15:38:00,54.3,42.9,29.87,NNE,27,2.8,5.1,65,0.00,,,0.04,WUHU21623XXSP,2013-09-22 19:38:00,
2013-09-22 15:43:00,54.5,43.5,29.88,NNW,337,4.6,6.5,66,0.00,,,0.04,WUHU21623XXSP,2013-09-22 19:43:00,
2013-09-22 15:48:00,54.7,43.3,29.88,NNE,22,1.8,6.5,65,0.00,,,0.04,WUHU21623XXSP,2013-09-22 19:48:00,
2013-09-22 15:53:00,54.7,42.9,29.88,NNE,29,2.5,6.9,64,0.00,,,0.04,WUHU21623XXSP,2013-09-22 19:53:00,
2013-09-22 15:58:00,54.5,42.7,29.87,NE,51,2.7,6.9,64,0.00,,,0.04,WUHU21623XXSP,2013-09-22 19:58:00,
2013-09-22 16:03:00,54.7,43.3,29.88,NE,45,0.0,3.8,65,0.00,,,0.04,WUHU21623XXSP,2013-09-22 20:03:00,
2013-09-22 16:08:00,54.7,43.3,29.88,NE,45,2.0,4.9,65,0.00,,,0.04,WUHU21623XXSP,2013-09-22 20:08:00,
2013-09-22 16:13:00,54.5,43.1,29.88,NNE,32,2.8,4.9,65,0.00,,,0.04,WUHU21623XXSP,2013-09-22 20:13:00,
2013-09-22 16:18:00,54.3,42.5,29.88,NNE,22,0.7,4.7,64,0.00,,,0.04,WUHU21623XXSP,2013-09-22 20:18:00,
2013-09-22 16:23:00,54.0,42.2,29.88,NE,45,1.0,4.0,64,0.00,,,0.04,WUHU21623XXSP,2013-09-22 20:23:00,
2013-09-22 16:28:00,53.8,42.4,29.88,North,353,1.5,4.0,65,0.00,,,0.04,WUHU21623XXSP,2013-09-22 20:28:00,
2013-09-22 16:33:00,53.4,42.4,29.88,NE,34,5.3,8.3,66,0.00,,,0.04,WUHU21623XXSP,2013-09-22 20:33:00,
2013-09-22 16:38:00,52.9,42.0,29.88,NNE,22,2.8,8.3,66,0.00,,,0.04,WUHU21623XXSP,2013-09-22 20:38:00,
2013-09-22 16:43:00,52.5,41.6,29.88,NE,38,1.4,6.0,66,0.00,,,0.04,WUHU21623XXSP,2013-09-22 20:43:00,
2013-09-22 16:48:00,52.3,41.4,29.88,NNE,17,1.8,5.1,66,0.00,,,0.04,WUHU21623XXSP,2013-09-22 20:48:00,
2013-09-22 16:53:00,52.0,41.5,29.89,North,3,3.3,5.8,67,0.00,,,0.04,WUHU21623XXSP,2013-09-22 20:53:00,
2013-09-22 16:58:00,51.6,41.1,29.89,North,0,0.0,5.8,67,0.00,,,0.04,WUHU21623XXSP,2013-09-22 20:58:00,
2013-09-22 17:03:00,51.6,41.5,29.89,North,11,1.6,5.6,68,0.00,,,0.04,WUHU21623XXSP,2013-09-22 21:03:00,
2013-09-22 17:08:00,51.4,41.3,29.90,NNE,22,2.1,4.9,68,0.00,,,0.04,WUHU21623XXSP,2013-09-22 21:08:00,
2013-09-22 17:13:00,51.4,41.3,29.90,NNE,22,0.0,4.9,68,0.00,,,0.04,WUHU21623XXSP,2013-09-22 21:13:00,
2013-09-22 17:18:00,51.4,41.3,29.90,NE,35,2.7,4.9,68,0.00,,,0.04,WUHU21623XXSP,2013-09-22 21:18:00,
2013-09-22 17:23:00,51.4,41.3,29.90,North,350,3.0,4.9,68,0.00,,,0.04,WUHU21623XXSP,2013-09-22 21:23:00,
2013-09-22 17:28:00,51.4,41.7,29.90,NNE,22,3.0,6.5,69,0.00,,,0.04,WUHU21623XXSP,2013-09-22 21:28:00,
2013-09-22 17:33:00,51.1,41.4,29.90,ENE,67,0.0,6.5,69,0.00,,,0.04,WUHU21623XXSP,2013-09-22 21:33:00,
2013-09-22 17:38:00,51.1,41.4,29.90,NNE,20,2.2,3.6,69,0.00,,,0.04,WUHU21623XXSP,2013-09-22 21:38:00,
2013-09-22 17:43:00,51.1,41.8,29.90,NE,45,0.0,4.5,70,0.00,,,0.04,WUHU21623XXSP,2013-09-22 21:43:00,
2013-09-22 17:48:00,51.1,41.8,29.90,ESE,112,0.0,4.5,70,0.00,,,0.04,WUHU21623XXSP,2013-09-22 21:48:00,
2013-09-22 17:53:00,50.9,41.6,29.91,ESE,112,0.4,2.9,70,0.00,,,0.04,WUHU21623XXSP,2013-09-22 21:53:00,
2013-09-22 17:58:00,50.7,41.4,29.90,North,352,2.5,4.5,70,0.00,,,0.04,WUHU21623XXSP,2013-09-22 21:58:00,
2013-09-22 18:03:00,50.5,41.2,29.91,East,88,2.5,4.9,70,0.00,,,0.04,WUHU21623XXSP,2013-09-22 22:03:00,
2013-09-22 18:08:00,50.4,41.1,29.91,ENE,57,3.3,4.9,70,0.00,,,0.04,WUHU21623XXSP,2013-09-22 22:08:00,
2013-09-22 18:13:00,50.2,40.9,29.91,NE,45,2.7,4.3,70,0.00,,,0.04,WUHU21623XXSP,2013-09-22 22:13:00,
2013-09-22 18:18:00,50.2,40.9,29.91,NE,45,0.9,4.3,70,0.00,,,0.04,WUHU21623XXSP,2013-09-22 22:18:00,
2013-09-22 18:23:00,50.2,41.3,29.91,NE,45,1.6,4.3,71,0.00,,,0.04,WUHU21623XXSP,2013-09-22 22:23:00,
2013-09-22 18:28:00,49.8,41.2,29.91,NE,45,2.6,4.3,72,0.00,,,0.04,WUHU21623XXSP,2013-09-22 22:28:00,
2013-09-22 18:33:00,49.8,41.2,29.91,ENE,67,0.0,6.3,72,0.00,,,0.04,WUHU21623XXSP,2013-09-22 22:33:00,
2013-09-22 18:38:00,49.8,41.2,29.91,NE,45,2.7,6.3,72,0.00,,,0.04,WUHU21623XXSP,2013-09-22 22:38:00,
2013-09-22 18:43:00,49.8,41.2,29.91,NE,45,2.3,3.4,72,0.00,,,0.04,WUHU21623XXSP,2013-09-22 22:43:00,
2013-09-22 18:48:00,49.6,41.0,29.91,ENE,67,0.0,3.4,72,0.00,,,0.04,WUHU21623XXSP,2013-09-22 22:48:00,
2013-09-22 18:53:00,49.6,41.4,29.91,ENE,67,0.0,2.0,73,0.00,,,0.04,WUHU21623XXSP,2013-09-22 22:53:00,
2013-09-22 18:58:00,49.5,41.3,29.91,NE,45,0.0,4.3,73,0.00,,,0.04,WUHU21623XXSP,2013-09-22 22:58:00,
2013-09-22 19:03:00,49.3,41.1,29.91,ENE,67,1.1,4.3,73,0.00,,,0.04,WUHU21623XXSP,2013-09-22 23:03:00,
2013-09-22 19:08:00,49.3,41.1,29.91,SSE,157,0.7,1.1,73,0.00,,,0.04,WUHU21623XXSP,2013-09-22 23:08:00,
2013-09-22 19:13:00,49.3,41.1,29.92,NE,56,1.4,1.8,73,0.00,,,0.04,WUHU21623XXSP,2013-09-22 23:13:00,
2013-09-22 19:18:00,49.3,41.1,29.92,ESE,112,0.0,1.8,73,0.00,,,0.04,WUHU21623XXSP,2013-09-22 23:18:00,
2013-09-22 19:23:00,49.3,41.1,29.92,ENE,67,0.0,0.0,73,0.00,,,0.04,WUHU21623XXSP,2013-09-22 23:23:00,
2013-09-22 19:28:00,49.3,41.4,29.92,NE,45,0.0,0.0,74,0.00,,,0.04,WUHU21623XXSP,2013-09-22 23:28:00,
2013-09-22 19:34:00,49.3,41.4,29.93,ENE,67,0.0,0.0,74,0.00,,,0.04,WUHU21623XXSP,2013-09-22 23:34:00,
2013-09-22 19:39:00,49.1,41.2,29.93,ENE,59,3.7,4.3,74,0.00,,,0.04,WUHU21623XXSP,2013-09-22 23:39:00,
2013-09-22 19:45:00,49.1,41.2,29.93,NNE,22,0.0,4.3,74,0.00,,,0.04,WUHU21623XXSP,2013-09-22 23:45:00,
2013-09-22 19:50:00,49.1,41.2,29.93,ENE,57,1.7,2.2,74,0.00,,,0.04,WUHU21623XXSP,2013-09-22 23:50:00,
2013-09-22 19:55:00,49.1,41.2,29.93,NE,45,0.0,2.2,74,0.00,,,0.04,WUHU21623XXSP,2013-09-22 23:55:00,
2013-09-22 20:00:00,48.9,41.4,29.93,NE,55,1.8,2.0,75,0.00,,,0.04,WUHU21623XXSP,2013-09-23 00:00:00,
2013-09-22 20:05:00,49.1,41.6,29.93,SE,135,2.5,2.7,75,0.00,,,0.04,WUHU21623XXSP,2013-09-23 00:05:00,
2013-09-22 20:10:00,49.1,41.6,29.94,NE,45,0.0,2.7,75,0.00,,,0.04,WUHU21623XXSP,2013-09-23 00:10:00,
2013-09-22 20:15:00,48.9,41.4,29.94,ENE,67,1.4,4.0,75,0.00,,,0.04,WUHU21623XXSP,2013-09-23 00:15:00,
2013-09-22 20:20:00,48.9,41.4,29.94,ENE,67,0.0,4.0,75,0.00,,,0.04,WUHU21623XXSP,2013-09-23 00:20:00,
2013-09-22 20:25:00,48.9,41.4,29.94,NE,45,0.0,3.6,75,0.00,,,0.04,WUHU21623XXSP,2013-09-23 00:25:00,
2013-09-22 20:30:00,48.9,41.4,29.94,NE,36,1.6,3.6,75,0.00,,,0.04,WUHU21623XXSP,2013-09-23 00:30:00,
2013-09-22 20:35:00,48.9,41.4,29.95,NE,41,1.1,2.5,75,0.00,,,0.04,WUHU21623XXSP,2013-09-23 00:35:00,
2013-09-22 20:40:00,48.9,41.4,29.95,NE,45,0.0,2.2,75,0.00,,,0.04,WUHU21623XXSP,2013-09-23 00:40:00,
2013-09-22 20:45:00,48.9,41.7,29.95,ENE,67,0.0,2.0,76,0.00,,,0.04,WUHU21623XXSP,2013-09-23 00:45:00,
2013-09-22 20:50:00,48.9,41.7,29.95,NE,45,0.0,3.1,76,0.00,,,0.04,WUHU21623XXSP,2013-09-23 00:50:00,
2013-09-22 20:55:00,48.9,41.7,29.95,NE,45,1.3,3.1,76,0.00,,,0.04,WUHU21623XXSP,2013-09-23 00:55:00,
2013-09-22 21:00:00,48.7,41.5,29.95,NE,45,0.0,2.0,76,0.00,,,0.04,WUHU21623XXSP,2013-09-23 01:00:00,
2013-09-22 21:05:00,48.7,41.5,29.95,NNE,22,2.2,3.8,76,0.00,,,0.04,WUHU21623XXSP,2013-09-23 01:05:00,
2013-09-22 21:10:00,48.7,41.5,29.95,NE,45,0.0,3.8,76,0.00,,,0.04,WUHU21623XXSP,2013-09-23 01:10:00,
2013-09-22 21:15:00,48.7,41.5,29.96,NE,45,0.0,0.0,76,0.00,,,0.04,WUHU21623XXSP,2013-09-23 01:15:00,
2013-09-22 21:20:00,48.7,41.5,29.96,NE,45,0.0,4.0,76,0.00,,,0.04,WUHU21623XXSP,2013-09-23 01:20:00,
2013-09-22 21:25:00,48.7,41.5,29.96,NE,45,0.0,4.0,76,0.00,,,0.04,WUHU21623XXSP,2013-09-23 01:25:00,
2013-09-22 21:30:00,48.7,41.5,29.96,NE,45,0.0,0.0,76,0.00,,,0.04,WUHU21623XXSP,2013-09-23 01:30:00,
2013-09-22 21:35:00,48.7,41.5,29.96,NNE,28,1.3,1.8,76,0.00,,,0.04,WUHU21623XXSP,2013-09-23 01:35:00,
2013-09-22 21:40:00,48.7,41.5,29.96,NNE,22,0.0,1.8,76,0.00,,,0.04,WUHU21623XXSP,2013-09-23 01:40:00,
2013-09-22 21:45:00,48.6,41.4,29.96,NNE,22,0.0,1.8,76,0.00,,,0.04,WUHU21623XXSP,2013-09-23 01:45:00,
2013-09-22 21:50:00,48.6,41.4,29.96,NNE,22,0.0,1.8,76,0.00,,,0.04,WUHU21623XXSP,2013-09-23 01:50:00,
2013-09-22 21:55:00,48.6,41.8,29.96,NNE,22,0.0,0.4,77,0.00,,,0.04,WUHU21623XXSP,2013-09-23 01:55:00,
2013-09-22 22:00:00,48.6,41.8,29.96,NNE,22,0.0,0.4,77,0.00,,,0.04,WUHU21623XXSP,2013-09-23 02:00:00,
2013-09-22 22:05:00,48.6,41.8,29.97,NE,45,0.0,3.1,77,0.00,,,0.04,WUHU21623XXSP,2013-09-23 02:05:00,
2013-09-22 22:10:00,48.4,41.6,29.97,NE,45,0.0,3.1,77,0.00,,,0.04,WUHU21623XXSP,2013-09-23 02:10:00,
2013-09-22 22:15:00,48.4,41.6,29.97,NE,45,0.0,0.0,77,0.00,,,0.04,WUHU21623XXSP,2013-09-23 02:15:00,
2013-09-22 22:20:00,48.4,41.6,29.97,NE,45,0.0,0.0,77,0.00,,,0.04,WUHU21623XXSP,2013-09-23 02:20:00,
2013-09-22 22:25:00,48.4,41.6,29.97,NNE,22,0.0,0.0,77,0.00,,,0.04,WUHU21623XXSP,2013-09-23 02:25:00,
2013-09-22 22:30:00,48.4,41.6,29.97,NNE,22,0.0,4.9,77,0.00,,,0.04,WUHU21623XXSP,2013-09-23 02:30:00,
2013-09-22 22:35:00,48.2,41.4,29.97,NNE,22,0.0,4.9,77,0.00,,,0.04,WUHU21623XXSP,2013-09-23 02:35:00,
2013-09-22 22:40:00,48.2,41.4,29.98,NNE,22,0.0,1.1,77,0.00,,,0.04,WUHU21623XXSP,2013-09-23 02:40:00,
2013-09-22 22:45:00,48.2,41.4,29.97,NNE,22,0.0,1.1,77,0.00,,,0.04,WUHU21623XXSP,2013-09-23 02:45:00,
2013-09-22 22:50:00,48.2,41.4,29.97,NNE,22,0.0,0.0,77,0.00,,,0.04,WUHU21623XXSP,2013-09-23 02:50:00,
2013-09-22 22:55:00,48.0,41.2,29.97,NNE,22,0.0,2.0,77,0.00,,,0.04,WUHU21623XXSP,2013-09-23 02:55:00,
2013-09-22 23:00:00,48.0,41.2,29.97,NNE,22,0.0,2.0,77,0.00,,,0.04,WUHU21623XXSP,2013-09-23 03:00:00,
2013-09-22 23:05:00,48.0,41.2,29.97,NNE,22,0.0,0.0,77,0.00,,,0.04,WUHU21623XXSP,2013-09-23 03:05:00,
2013-09-22 23:10:00,48.0,41.2,29.97,NNE,22,1.1,1.1,77,0.00,,,0.04,WUHU21623XXSP,2013-09-23 03:10:00,
2013-09-22 23:15:00,48.0,41.2,29.97,NNE,22,0.0,1.1,77,0.00,,,0.04,WUHU21623XXSP,2013-09-23 03:15:00,
2013-09-22 23:20:00,48.0,41.2,29.97,NNE,22,0.0,0.0,77,0.00,,,0.04,WUHU21623XXSP,2013-09-23 03:20:00,
2013-09-22 23:25:00,48.0,41.2,29.98,NNE,22,0.0,0.0,77,0.00,,,0.04,WUHU21623XXSP,2013-09-23 03:25:00,
2013-09-22 23:30:00,48.0,41.2,29.98,NNE,22,0.0,0.0,77,0.00,,,0.04,WUHU21623XXSP,2013-09-23 03:30:00,
2013-09-22 23:35:00,48.0,41.2,29.98,NNE,22,0.0,0.0,77,0.00,,,0.04,WUHU21623XXSP,2013-09-23 03:35:00,
2013-09-22 23:40:00,48.0,41.2,29.97,NNE,22,0.0,0.0,77,0.00,,,0.04,WUHU21623XXSP,2013-09-23 03:40:00,
2013-09-22 23:45:00,48.0,41.5,29.97,NNE,22,0.0,0.0,78,0.00,,,0.04,WUHU21623XXSP,2013-09-23 03:45:00,
2013-09-22 23:50:00,48.0,41.5,29.98,NNE,22,0.0,0.0,78,0.00,,,0.04,WUHU21623XXSP,2013-09-23 03:50:00,
2013-09-22 23:55:00,48.0,41.5,29.98,NNE,22,0.0,0.0,78,0.00,,,0.04,WUHU21623XXSP,2013-09-23 03:55:00,